Total_Precipitation_Accumulation
0.07 0.11 0.20 0.17 0.13 0.21 0.22 0.23 0.32 0.39 0.32 0.42 0.58 0.75 1.03 1.20 1.46 1.73 1.71 1.67 1.72 2.00 2.31 2.50 2.89 3.30 3.58 3.76 3.87 4.21 4.38 4.15 3.71 3.33 2.89 2.80 2.79 2.55 2.34 2.27 2.14 2.30 2.21 2.42
0.07 0.11 0.11 0.07 0.08 0.13 0.18 0.20 0.31 0.38 0.33 0.40 0.59 0.94 1.16 1.24 1.32 1.45 1.52 1.46 1.57 1.90 1.99 2.04 2.17 2.52 2.74 2.98 3.27 3.61 3.86 3.72 3.15 2.94 2.79 2.73 2.70 2.52 2.55 2.47 2.46 2.21 2.18 2.40
0.07 0.09 0.08 0.07 0.06 0.09 0.17 0.18 0.23 0.33 0.37 0.50 0.66 1.32 1.43 1.23 1.18 1.10 1.24 1.32 1.32 1.54 1.77 1.85 1.82 1.92 2.19 2.78 3.00 2.90 3.18 3.36 3.11 3.04 2.98 2.90 2.88 2.68 2.79 2.78 2.70 2.32 2.14 2.12
0.06 0.05 0.05 0.06 0.07 0.09 0.18 0.15 0.15 0.21 0.30 0.62 0.74 1.46 1.57 1.34 1.36 1.11 1.05 1.12 1.11 1.12 1.40 1.57 1.47 1.53 1.76 2.05 2.35 2.72 3.05 3.13 3.07 2.97 2.79 2.70 2.53 2.49 2.51 2.52 2.54 2.38 2.23 2.12
0.05 0.04 0.04 0.06 0.06 0.07 0.11 0.10 0.13 0.20 0.33 0.59 0.74 1.18 1.47 1.35 1.60 1.23 0.87 0.79 0.80 0.80 0.90 1.05 1.18 1.33 1.38 1.53 1.93 2.50 2.97 3.20 3.09 2.78 2.66 2.80 2.64 2.55 2.54 2.44 2.64 2.46 2.30 2.13
0.05 0.04 0.04 0.04 0.05 0.06 0.07 0.11 0.23 0.37 0.55 0.99 0.96 1.04 1.42 1.21 1.06 0.83 0.68 0.61 0.64 0.70 0.69 0.77 0.90 1.16 1.33 1.38 1.62 2.08 2.51 2.81 2.89 2.70 2.59 2.67 2.77 2.76 2.63 2.50 2.48 2.29 2.24 2.17
0.09 0.09 0.06 0.04 0.05 0.06 0.06 0.12 0.43 0.73 0.97 1.12 0.75 0.96 1.34 0.92 0.74 0.67 0.64 0.64 0.59 0.55 0.66 0.81 0.94 1.07 1.12 1.22 1.41 1.68 1.92 2.14 2.36 2.53 2.59 2.52 2.69 2.78 2.55 2.32 2.38 2.33 2.16 2.16
0.12 0.19 0.10 0.06 0.07 0.07 0.07 0.10 0.28 0.47 0.59 0.71 0.74 1.41 1.32 0.74 0.61 0.57 0.57 0.57 0.58 0.67 0.73 0.83 1.04 1.10 1.02 1.06 1.30 1.49 1.66 1.92 2.20 2.39 2.46 2.40 2.34 2.25 2.20 2.35 2.26 2.26 2.23 2.16
0.06 0.09 0.08 0.07 0.06 0.07 0.08 0.10 0.14 0.23 0.30 0.56 0.90 1.09 0.85 0.55 0.54 0.57 0.55 0.58 0.63 0.73 0.86 0.93 1.08 1.11 1.02 1.07 1.27 1.42 1.60 1.79 1.94 2.24 2.42 2.32 2.25 2.08 2.05 2.11 2.09 2.05 2.20 2.15
0.04 0.06 0.06 0.06 0.06 0.08 0.09 0.10 0.15 0.18 0.26 0.45 0.77 1.02 1.08 0.82 0.68 0.59 0.60 0.65 0.69 0.81 0.98 1.10 1.10 1.12 1.07 1.13 1.35 1.42 1.55 1.64 1.69 1.84 1.91 1.81 2.00 2.02 2.12 2.10 2.00 1.92 1.92 1.97
0.04 0.04 0.06 0.07 0.08 0.10 0.11 0.09 0.10 0.13 0.16 0.29 0.63 0.84 0.80 0.77 0.75 0.62 0.60 0.69 0.81 0.82 0.97 1.07 1.02 1.00 0.97 1.03 1.16 1.19 1.36 1.53 1.59 1.72 1.76 1.80 1.90 1.96 2.02 2.06 2.03 2.02 2.02 2.04
0.04 0.05 0.06 0.09 0.10 0.10 0.12 0.15 0.14 0.14 0.13 0.20 0.34 0.50 0.49 0.57 0.67 0.65 0.69 0.81 0.91 0.76 0.80 1.02 1.07 1.06 0.86 0.90 1.00 1.12 1.34 1.53 1.59 1.74 1.87 1.90 2.02 2.07 2.01 2.05 2.24 2.24 2.19 2.16
0.04 0.05 0.09 0.16 0.20 0.14 0.11 0.12 0.15 0.15 0.15 0.16 0.24 0.43 0.44 0.51 0.62 0.64 0.76 0.90 0.89 0.83 0.81 0.95 1.06 0.95 0.85 0.85 0.92 0.96 1.11 1.31 1.43 1.56 1.72 1.95 2.03 2.08 2.25 2.43 2.59 2.62 2.51 2.45
0.04 0.04 0.08 0.18 0.26 0.29 0.23 0.15 0.16 0.16 0.16 0.16 0.20 0.34 0.44 0.58 0.67 0.71 0.79 0.93 0.85 0.78 0.75 0.77 0.94 0.97 0.88 0.84 0.86 0.91 1.05 1.20 1.38 1.66 1.88 2.08 2.31 2.47 2.62 2.63 2.73 2.73 2.69 2.68
0.03 0.02 0.04 0.08 0.13 0.19 0.20 0.15 0.14 0.13 0.13 0.16 0.21 0.33 0.44 0.55 0.66 0.75 0.81 0.78 0.78 0.74 0.75 0.86 0.99 1.14 1.14 1.06 0.97 0.99 1.21 1.43 1.66 1.95 2.08 2.15 2.27 2.46 2.73 2.96 2.96 2.89 2.81 2.72
0.06 0.05 0.06 0.08 0.12 0.15 0.13 0.13 0.12 0.10 0.11 0.13 0.20 0.34 0.47 0.59 0.66 0.61 0.65 0.65 0.72 0.81 0.88 1.03 1.18 1.31 1.41 1.43 1.40 1.42 1.55 1.81 2.11 2.42 2.55 2.69 2.79 2.91 3.05 3.15 3.21 3.27 3.23 3.16
0.17 0.17 0.16 0.15 0.16 0.18 0.16 0.16 0.15 0.14 0.15 0.17 0.25 0.35 0.50 0.65 0.65 0.73 0.74 0.72 0.83 0.92 1.05 1.19 1.29 1.37 1.51 1.56 1.62 1.80 1.94 2.16 2.41 2.59 2.70 2.81 2.92 3.10 3.26 3.33 3.40 3.27 3.24 3.21
0.37 0.34 0.28 0.23 0.29 0.33 0.22 0.25 0.27 0.29 0.32 0.35 0.38 0.45 0.55 0.67 0.70 0.83 0.88 0.86 0.87 0.99 1.17 1.22 1.31 1.41 1.52 1.65 1.81 1.98 2.11 2.23 2.55 2.77 2.86 2.93 2.98 3.07 3.27 3.48 3.41 3.26 3.24 3.20
0.44 0.51 0.48 0.37 0.37 0.39 0.39 0.34 0.35 0.47 0.59 0.53 0.67 0.75 0.73 0.78 0.85 0.91 0.94 1.13 1.13 1.08 1.19 1.26 1.36 1.44 1.57 1.64 1.69 1.69 1.82 2.03 2.27 2.50 2.69 2.70 2.86 3.05 3.15 3.18 3.22 3.32 3.31 3.12
0.37 0.42 0.51 0.53 0.56 0.56 0.57 0.53 0.42 0.49 0.88 0.86 0.93 1.03 0.98 1.03 1.30 1.22 0.96 0.97 1.13 1.15 1.17 1.29 1.45 1.51 1.48 1.50 1.55 1.63 1.79 2.01 2.23 2.44 2.65 2.83 2.98 3.15 3.19 3.21 3.36 3.44 3.42 3.38
0.58 0.59 0.58 0.60 0.67 0.66 0.56 0.50 0.53 0.91 1.22 1.18 1.25 1.27 1.19 1.24 1.33 1.25 1.08 1.02 1.03 1.08 1.12 1.22 1.41 1.57 1.57 1.54 1.73 1.93 2.07 2.22 2.38 2.50 2.60 2.74 2.94 3.18 3.44 3.63 3.56 3.58 3.57 3.48
0.81 0.82 0.80 0.84 1.05 1.17 0.85 0.77 1.02 1.23 0.97 1.02 1.23 1.46 1.47 1.41 1.33 1.26 1.17 1.11 1.05 0.99 1.06 1.27 1.42 1.57 1.70 1.78 1.95 2.16 2.19 2.23 2.44 2.65 2.75 2.82 3.03 3.11 3.26 3.54 3.57 3.51 3.51 3.42
0.95 1.05 1.15 1.20 1.37 1.24 1.04 1.06 1.01 1.09 1.26 1.32 1.41 1.64 1.68 1.54 1.42 1.44 1.38 1.28 1.19 1.11 1.13 1.27 1.43 1.59 1.69 1.88 2.06 2.22 2.30 2.37 2.48 2.63 2.80 3.00 3.11 3.18 3.32 3.49 3.56 3.56 3.49 3.34
1.00 0.87 1.10 1.42 1.55 1.36 1.19 1.15 1.11 1.16 1.35 1.44 1.43 1.47 1.51 1.50 1.46 1.61 1.65 1.50 1.47 1.43 1.38 1.41 1.50 1.63 1.73 1.80 2.01 2.20 2.33 2.38 2.50 2.59 2.67 2.84 2.99 3.12 3.29 3.32 3.19 3.05 2.92 2.86
1.11 1.12 1.33 1.76 1.92 1.82 1.60 1.45 1.34 1.36 1.32 1.40 1.35 1.38 1.40 1.46 1.48 1.56 1.71 1.73 1.67 1.57 1.48 1.52 1.62 1.74 1.79 1.81 1.89 2.14 2.35 2.44 2.49 2.62 2.69 2.70 2.70 2.78 2.96 3.03 2.99 2.85 2.67 2.53
1.25 1.47 1.85 2.27 2.19 2.25 2.07 1.71 1.50 1.56 1.54 1.50 1.46 1.53 1.58 1.57 1.56 1.60 1.75 1.80 1.77 1.70 1.65 1.67 1.72 1.78 1.81 1.90 2.00 2.10 2.40 2.67 2.74 2.72 2.58 2.50 2.42 2.40 2.49 2.52 2.55 2.67 2.54 2.54